Hourly Data Report for October 19, 2014

All times are specified in Local Standard Time (LST). Add 1 hour to adjust for Daylight Saving Time where and when it is observed.

KITCHENER/WATERLOO
ONTARIO

43°27'39.000" N
80°22'43.000" W
321.60 m
6144239
71368
YKF

Download Data

Hourly Data (October 2014)
Hourly Data Report for October 19, 2014
Temp Definition
°C
Dew Point Temp Definition
°C
Rel Hum Definition
%
Wind Dir Definition
10's deg

Wind Spd Definition
km/h
Visibility Definition
km
Stn Press Definition
kPa
Hmdx Definition


Wind Chill Definition


Weather Definition


TIME
00:00 Legend Double Dagger 3.1 0.0 80 33 15 16.1 97.82     LegendNANA
01:00 Legend Double Dagger 3.4 -0.6 75 31 18 16.1 97.84     LegendNANA
02:00 Legend Double Dagger 3.2 -0.5 77 31 13 16.1 97.89     LegendNANA
03:00 Legend Double Dagger 2.8 -0.7 78 32 8 16.1 97.92     LegendNANA
04:00 Legend Double Dagger 2.6 -0.9 78 32 13 16.1 97.97     LegendNANA
05:00 Legend Double Dagger 2.2 -1.4 77 33 18 16.1 98.02     LegendNANA
06:00 Legend Double Dagger 1.9 -1.6 78 32 11 16.1 98.07     LegendNANA
07:00 Legend Double Dagger 0.4 -2.0 84 30 9 16.1 98.13     LegendNANA
08:00 Legend Double Dagger 2.0 -1.3 79 30 9 16.1 98.17     LegendNANA
09:00 Legend Double Dagger 3.0 -2.3 68 32 15 16.1 98.19     LegendNANA
10:00 Legend Double Dagger 4.1 -2.0 65 31 11 16.1 98.17     LegendNANA
11:00 Legend Double Dagger 4.7 -1.3 65 28 21 16.1 98.18     LegendNANA
12:00 Legend Double Dagger 6.1 -0.6 62 30 21 16.1 98.12     LegendNANA
13:00 Legend Double Dagger 8.0 0.1 57 28 18 16.1 98.04     LegendNANA
14:00 Legend Double Dagger 8.7 -0.4 53 29 21 16.1 98.01     LegendNANA
15:00 Legend Double Dagger 8.5 0.5 57 28 21 16.1 97.96     LegendNANA
16:00 Legend Double Dagger 8.3 0.7 59 27 24 16.1 97.92     LegendNANA
17:00 Legend Double Dagger 6.9 0.0 61 26 18 16.1 97.90     LegendNANA
18:00 Legend Double Dagger 4.7 0.1 72 26 9 16.1 97.89     LegendNANA
19:00 Legend Double Dagger 3.5 0.6 81   0 16.1 97.86     LegendNANA
20:00 Legend Double Dagger 2.5 1.2 91   0 16.1 97.82     LegendNANA
21:00 Legend Double Dagger 4.3 1.5 82 19 5 16.1 97.76     LegendNANA
22:00 Legend Double Dagger 4.0 1.7 85 22 5 16.1 97.75     LegendNANA
23:00 Legend Double Dagger 4.6 2.0 83 19 8 16.1 97.71     LegendNANA

Notes on Data Quality.

Legend

  • E = Estimated
  • M = Missing
  • NA = Not Available
  • ‡ = Partner data that is not subject to review by the National Climate Archives
Date modified: